[[{"header":{"parameterUnit":"m.s-1","parameterCategory":1,"la1":30.2991,"la2":30.254,"lo1":-89.0895,"lo2":-89.0444,"dy":0.0017,"dx":0.0017,"nx":28,"ny":28,"refTime":"2025-03-24T21:00:00:Z","depth":0,"parameterNumber":2,"parameterNumberName":"U-component_of_WINDS"},"data":[0,0,0,0,0,0,0,0,0,0,0,0,0,0,0,0,0,0,0,0,0,0,0,0,0,0,0,0,0,0,0,0,0,0,0,0,0,0,0,0,0,0,0,0,0,0,0,0,0,0,0,0,0,0,0,0,0,0,-0.374,-0.374,0,-0.3764,-0.3765,-0.3765,-0.3741,-0.374,-0.3739,-0.3738,-0.3767,-0.3769,-0.377,0,0,0,0,0,0,0,0,0,0,0,0,0,-0.3676,-0.3677,-0.374,-0.374,-0.374,-0.3764,-0.3765,-0.3765,-0.3741,-0.374,-0.3738,-0.3737,-0.3766,-0.3768,-0.377,0,0,0,0,0,0,0,0,0,0,0,0,0,-0.3703,-0.3678,-0.374,-0.3731,-0.3731,-0.3764,-0.3765,-0.3765,-0.3741,-0.374,-0.3738,-0.3737,-0.3766,-0.3768,-0.3771,-0.3815,0,0,-0.3778,-0.3779,0,0,0,0,0,0,0,0,-0.3701,-0.3705,-0.3732,-0.3732,-0.3731,-0.3748,-0.3753,-0.3782,-0.3741,-0.3737,-0.3738,-0.3736,-0.3762,-0.3765,-0.3773,-0.3817,-0.3818,-0.3779,-0.378,-0.3781,-0.3782,0,0,0,0,0,0,0,-0.3699,-0.3704,-0.375,-0.3732,-0.3732,-0.3727,-0.3729,-0.3758,-0.3758,-0.3737,-0.3736,-0.3739,-0.3762,-0.377,-0.3773,-0.3818,-0.3778,-0.3781,-0.3782,-0.3783,-0.3901,-0.3903,0,0,0,0,0,0,-0.3698,-0.3702,-0.3749,-0.375,-0.3712,-0.373,-0.3732,-0.3744,-0.3757,-0.3758,-0.374,-0.3738,-0.3767,-0.377,-0.3774,-0.3828,-0.3781,-0.3784,-0.3785,-0.3899,-0.3901,-0.3903,0,0,0,0,0,0,-0.3696,-0.3702,-0.3748,-0.3726,-0.3731,-0.3732,-0.3746,-0.3745,-0.3754,-0.3759,-0.3759,-0.3749,-0.3766,-0.3771,-0.3805,-0.3829,-0.3785,-0.3787,-0.3897,-0.39,-0.3902,-0.3935,0,0,0,0,0,0,-0.3695,-0.3702,-0.3718,-0.3726,-0.3732,-0.3777,-0.3747,-0.3747,-0.3758,-0.3755,-0.3767,-0.3768,-0.3765,-0.3801,-0.3808,-0.3831,-0.3789,-0.3895,-0.3899,-0.3901,-0.3932,-0.3939,-0.3944,0,0,0,0,0,-0.3693,-0.3727,-0.3719,-0.3724,-0.3752,-0.3779,-0.3782,-0.3777,-0.376,-0.3777,-0.378,-0.3768,-0.3825,-0.3805,-0.3812,-0.3837,-0.3894,-0.3898,-0.3901,-0.393,-0.3937,-0.3944,0,0,0,0,0,0,-0.3723,-0.3728,-0.3719,-0.3757,-0.3767,-0.3774,-0.3795,-0.3785,-0.3802,-0.3799,-0.3792,-0.3795,-0.3832,-0.3838,-0.3816,-0.3881,-0.3857,-0.3862,-0.3876,-0.3884,-0.3889,-0.3888,-0.3791,0,0,0,0,0,-0.3733,-0.3753,-0.3757,-0.379,-0.3796,-0.3795,-0.3806,-0.3801,-0.3812,-0.3817,-0.3823,-0.3835,-0.3856,-0.387,-0.3889,-0.3933,-0.3936,-0.3953,-0.3959,-0.3964,-0.3969,-0.3993,-0.4001,-0.3915,-0.3915,-0.3915,0,0,-0.3756,-0.3762,-0.3775,-0.3796,-0.3804,-0.3826,-0.3799,-0.3823,-0.3839,-0.3821,-0.3854,-0.3858,-0.3872,-0.3911,-0.3929,-0.3917,-0.3993,-0.3968,-0.3972,-0.3975,-0.3998,-0.4006,-0.4013,-0.3918,-0.3917,-0.3917,0,0,-0.381,-0.3815,-0.3843,-0.3851,-0.3862,-0.3862,-0.3868,-0.3877,-0.3879,-0.3912,-0.3898,-0.3919,-0.3954,-0.3965,-0.3975,-0.4032,-0.4022,-0.4038,-0.407,-0.4094,-0.4101,-0.4107,-0.4129,-0.4136,-0.4043,-0.4043,-0.4043,0,-0.3837,-0.3868,-0.386,-0.3885,-0.3895,-0.3878,-0.3907,-0.3916,-0.3934,-0.3942,-0.3928,-0.3972,-0.398,-0.4022,-0.4036,-0.4045,-0.4054,-0.4038,-0.41,-0.4106,-0.4112,-0.4132,-0.414,-0.4045,-0.4045,-0.4045,-0.4045,0,-0.3902,-0.3924,-0.3946,-0.3962,-0.3975,-0.4002,-0.3999,-0.4013,-0.4007,-0.4008,-0.4042,-0.4051,-0.4072,-0.4081,-0.4076,-0.4123,-0.4115,-0.4101,-0.4077,-0.4122,-0.4142,-0.4149,-0.4048,-0.4047,-0.4047,-0.4046,0,0,-0.3976,-0.3986,-0.3995,-0.4002,-0.4013,-0.4031,-0.4058,-0.4077,-0.409,-0.4103,-0.4126,-0.4157,-0.4143,-0.4155,-0.415,-0.4171,-0.4217,-0.4154,-0.4155,-0.4167,-0.4271,-0.4283,-0.4292,-0.421,-0.4211,-0.4212,-0.4271,0,-0.403,-0.4076,-0.4069,-0.4113,-0.4134,-0.4118,-0.4141,-0.4152,-0.4153,-0.4172,-0.4174,-0.4197,-0.4177,-0.4184,-0.4203,-0.4207,-0.4238,-0.4203,-0.4233,-0.4235,-0.4232,-0.4302,-0.4314,-0.4369,-0.4278,-0.4279,-0.428,0,-0.41,-0.4114,-0.416,-0.4168,-0.4177,-0.4198,-0.4216,-0.4233,-0.4245,-0.4245,-0.4257,-0.4249,-0.4278,-0.4252,-0.4292,-0.4268,-0.428,-0.4284,-0.4286,-0.429,-0.4261,-0.4309,-0.4386,-0.4394,-0.4292,-0.4291,-0.429,0,-0.4151,-0.4181,-0.4213,-0.422,-0.423,-0.4245,-0.425,-0.426,-0.4272,-0.4288,-0.4296,-0.4315,-0.4327,-0.4342,-0.434,-0.4321,-0.4381,-0.4355,-0.4383,-0.4384,-0.4398,-0.4397,-0.4479,-0.4404,-0.4403,-0.4403,-0.4403,0,-0.4213,-0.4242,-0.4236,-0.4256,-0.4288,-0.428,-0.4314,-0.4317,-0.4326,-0.4347,-0.4334,-0.4355,-0.435,-0.437,-0.4369,-0.4403,-0.4408,-0.441,-0.4409,-0.4412,-0.4412,-0.442,-0.4417,-0.4405,-0.4405,-0.4404,-0.4404,0,-0.4276,-0.4272,-0.4306,-0.4312,-0.4315,-0.4339,-0.4345,-0.4364,-0.4364,-0.4391,-0.4397,-0.4398,-0.4422,-0.4421,-0.4448,-0.4447,-0.4489,-0.4484,-0.4485,-0.4484,-0.4513,-0.4511,-0.4605,-0.4617,-0.4532,-0.4533,-0.4534,0,-0.4316,-0.4338,-0.4347,-0.4359,-0.4365,-0.4385,-0.4398,-0.4391,-0.4404,-0.4419,-0.4437,-0.4459,-0.4477,-0.4516,-0.452,-0.4541,-0.4537,-0.4568,-0.454,-0.4542,-0.4539,-0.4538,-0.4541,-0.4574,-0.4575,-0.4576,-0.4576,0,-0.4389,-0.4386,-0.4404,-0.4421,-0.4435,-0.4448,-0.446,-0.4472,-0.4467,-0.4483,-0.4506,-0.4519,-0.4546,-0.4569,-0.4589,-0.4596,-0.4586,-0.4585,-0.4593,-0.4596,-0.4597,-0.4598,-0.4502,-0.4583,-0.4582,-0.4582,-0.4582,-0.4581,-0.4443,-0.4462,-0.4471,-0.4491,-0.4499,-0.451,-0.4529,-0.4531,-0.455,-0.4571,-0.4566,-0.4592,-0.4604,-0.463,-0.4638,-0.466,-0.4649,-0.466,-0.4663,-0.4667,-0.4671,-0.4592,-0.4664,-0.4663,-0.4663,-0.4663,-0.4663,0,-0.4517,-0.4521,-0.4539,-0.4556,-0.4572,-0.4559,-0.4572,-0.4587,-0.461,-0.4621,-0.4638,-0.4665,-0.4687,-0.4693,-0.4714,-0.4731,-0.4727,-0.4737,-0.4736,-0.4738,-0.4678,-0.467,-0.474,-0.474,-0.474,-0.474,-0.474,-0.474,-0.4557,-0.4589,-0.4587,-0.4623,-0.4627,-0.4652,-0.4661,-0.4672,-0.4681,-0.4712,-0.4729,-0.4732,-0.4741,-0.4763,-0.4784,-0.4785,-0.4794,-0.4806,-0.4806,-0.475,-0.4742,-0.4735,-0.4727,-0.4808,-0.4808,-0.4864,-0.4864,-0.4865]},{"header":{"parameterUnit":"m.s-1","parameterCategory":1,"la1":30.2991,"la2":30.254,"lo1":-89.0895,"lo2":-89.0444,"dy":0.0017,"dx":0.0017,"nx":28,"ny":28,"refTime":"2025-03-24T21:00:00:Z","depth":0,"parameterNumber":3,"parameterNumberName":"V-component_of_WINDS"},"data":[0,0,0,0,0,0,0,0,0,0,0,0,0,0,0,0,0,0,0,0,0,0,0,0,0,0,0,0,0,0,0,0,0,0,0,0,0,0,0,0,0,0,0,0,0,0,0,0,0,0,0,0,0,0,0,0,0,0,-0.3278,-0.3278,0,-0.3313,-0.3313,-0.3314,-0.3314,-0.3314,-0.3313,-0.3313,-0.3347,-0.3348,-0.3349,0,0,0,0,0,0,0,0,0,0,0,0,0,-0.3211,-0.3212,-0.3278,-0.3278,-0.3279,-0.3313,-0.3313,-0.3314,-0.3314,-0.3314,-0.3313,-0.3313,-0.3346,-0.3348,-0.3349,0,0,0,0,0,0,0,0,0,0,0,0,0,-0.3242,-0.3212,-0.3278,-0.3283,-0.3284,-0.3313,-0.3313,-0.3314,-0.3314,-0.3314,-0.3313,-0.3312,-0.3346,-0.3348,-0.335,-0.3375,0,0,-0.3356,-0.3356,0,0,0,0,0,0,0,0,-0.324,-0.3244,-0.3282,-0.3283,-0.3284,-0.3308,-0.3302,-0.3334,-0.3314,-0.3303,-0.3313,-0.3312,-0.3334,-0.3337,-0.3345,-0.3376,-0.3378,-0.3356,-0.3357,-0.3358,-0.3358,0,0,0,0,0,0,0,-0.3238,-0.3243,-0.3292,-0.3283,-0.3284,-0.3283,-0.3287,-0.3308,-0.3322,-0.3304,-0.3304,-0.3308,-0.3335,-0.3343,-0.3346,-0.3378,-0.3356,-0.3357,-0.3359,-0.3359,-0.3431,-0.3432,0,0,0,0,0,0,-0.3235,-0.3241,-0.3291,-0.3293,-0.326,-0.3285,-0.3289,-0.3301,-0.3322,-0.3324,-0.3309,-0.3308,-0.334,-0.3344,-0.3347,-0.3378,-0.3358,-0.336,-0.3361,-0.3431,-0.3431,-0.3432,0,0,0,0,0,0,-0.3234,-0.3239,-0.3289,-0.3267,-0.3273,-0.3287,-0.33,-0.3302,-0.3311,-0.3325,-0.3328,-0.3315,-0.334,-0.3344,-0.3368,-0.3379,-0.336,-0.3362,-0.343,-0.3431,-0.3432,-0.3439,0,0,0,0,0,0,-0.3232,-0.3239,-0.3249,-0.3267,-0.3275,-0.331,-0.3301,-0.3303,-0.3314,-0.3314,-0.3332,-0.3334,-0.334,-0.3365,-0.337,-0.3381,-0.3364,-0.3429,-0.343,-0.3431,-0.3438,-0.344,-0.3443,0,0,0,0,0,-0.3229,-0.3249,-0.3249,-0.3255,-0.3287,-0.3311,-0.3315,-0.3321,-0.3315,-0.3325,-0.3334,-0.3333,-0.3377,-0.3367,-0.3373,-0.3385,-0.3428,-0.343,-0.3431,-0.3437,-0.344,-0.3442,0,0,0,0,0,0,-0.3231,-0.3252,-0.3252,-0.3279,-0.3293,-0.3311,-0.3323,-0.3324,-0.334,-0.3339,-0.3346,-0.335,-0.3373,-0.3381,-0.337,-0.341,-0.3402,-0.3405,-0.3404,-0.3407,-0.3409,-0.3407,-0.3365,0,0,0,0,0,-0.3235,-0.3252,-0.3269,-0.3291,-0.3298,-0.331,-0.332,-0.3324,-0.3339,-0.3344,-0.3355,-0.3369,-0.3386,-0.3397,-0.3413,-0.3439,-0.3443,-0.345,-0.3452,-0.3454,-0.3457,-0.3471,-0.3474,-0.3438,-0.3438,-0.3438,0,0,-0.3242,-0.3256,-0.3266,-0.3292,-0.3303,-0.3321,-0.3315,-0.3333,-0.3346,-0.3347,-0.337,-0.3379,-0.3395,-0.3419,-0.3431,-0.3427,-0.3468,-0.3456,-0.3458,-0.3459,-0.3473,-0.3477,-0.348,-0.3439,-0.3439,-0.3438,0,0,-0.3265,-0.3277,-0.3297,-0.3308,-0.3326,-0.3334,-0.3338,-0.3356,-0.3362,-0.3385,-0.3386,-0.3401,-0.343,-0.3441,-0.3451,-0.3478,-0.3478,-0.3483,-0.3495,-0.3509,-0.3512,-0.3514,-0.3524,-0.3527,-0.3485,-0.3485,-0.3485,0,-0.3272,-0.3299,-0.3307,-0.3326,-0.3337,-0.3339,-0.3358,-0.3369,-0.3391,-0.3398,-0.3394,-0.343,-0.3441,-0.3469,-0.3475,-0.3483,-0.3488,-0.3481,-0.3511,-0.3513,-0.3516,-0.3525,-0.3529,-0.3486,-0.3486,-0.3486,-0.3486,0,-0.3307,-0.3326,-0.3339,-0.3361,-0.3374,-0.3393,-0.3403,-0.3415,-0.3417,-0.3425,-0.3449,-0.3462,-0.3481,-0.3488,-0.349,-0.3516,-0.3513,-0.3509,-0.3501,-0.352,-0.3529,-0.3532,-0.3487,-0.3486,-0.3486,-0.3486,0,0,-0.3332,-0.3358,-0.3363,-0.3373,-0.3392,-0.3407,-0.3426,-0.3445,-0.3455,-0.347,-0.3486,-0.351,-0.3508,-0.3518,-0.3522,-0.3534,-0.3555,-0.3529,-0.353,-0.3534,-0.3584,-0.3587,-0.3591,-0.3555,-0.3556,-0.3556,-0.3583,0,-0.3357,-0.3392,-0.3399,-0.3429,-0.3447,-0.3449,-0.3465,-0.3479,-0.3487,-0.3502,-0.351,-0.3528,-0.3522,-0.3529,-0.3541,-0.355,-0.3565,-0.3548,-0.357,-0.357,-0.3566,-0.3595,-0.3598,-0.3623,-0.3586,-0.3587,-0.3587,0,-0.3391,-0.3408,-0.344,-0.3457,-0.3465,-0.348,-0.3498,-0.3513,-0.3528,-0.3533,-0.3545,-0.3548,-0.3567,-0.3558,-0.3584,-0.3573,-0.3582,-0.3587,-0.3588,-0.3591,-0.358,-0.3599,-0.3631,-0.3634,-0.3593,-0.3592,-0.3592,0,-0.3407,-0.3437,-0.346,-0.3468,-0.3489,-0.35,-0.3509,-0.3523,-0.3534,-0.355,-0.3557,-0.3575,-0.3584,-0.3597,-0.3604,-0.3597,-0.3631,-0.3622,-0.3635,-0.3635,-0.3642,-0.3642,-0.3676,-0.3648,-0.3648,-0.3648,-0.3648,0,-0.3434,-0.3453,-0.3467,-0.3481,-0.3503,-0.3511,-0.3532,-0.3541,-0.3554,-0.3569,-0.3572,-0.3586,-0.3595,-0.361,-0.3616,-0.3637,-0.3641,-0.3645,-0.3647,-0.3645,-0.3645,-0.3652,-0.365,-0.3649,-0.3648,-0.3648,-0.3648,0,-0.3455,-0.3465,-0.349,-0.3508,-0.3513,-0.3528,-0.3543,-0.3557,-0.3565,-0.3584,-0.3589,-0.3601,-0.362,-0.3628,-0.3651,-0.3654,-0.3679,-0.3679,-0.3674,-0.3674,-0.3687,-0.3686,-0.3727,-0.3733,-0.3701,-0.3701,-0.3701,0,-0.3472,-0.3487,-0.3507,-0.3518,-0.3527,-0.3545,-0.3556,-0.3564,-0.3576,-0.3595,-0.3606,-0.3625,-0.364,-0.3669,-0.368,-0.3697,-0.3697,-0.3711,-0.37,-0.3698,-0.3698,-0.3697,-0.3699,-0.3713,-0.3713,-0.3713,-0.3713,0,-0.3501,-0.3505,-0.3522,-0.3541,-0.3555,-0.357,-0.3584,-0.3593,-0.3603,-0.3616,-0.3635,-0.3647,-0.3671,-0.3689,-0.3707,-0.3716,-0.3716,-0.3717,-0.3721,-0.372,-0.3716,-0.3719,-0.368,-0.3716,-0.3716,-0.3715,-0.3715,-0.3715,-0.3521,-0.3534,-0.355,-0.3569,-0.3581,-0.3595,-0.3609,-0.3618,-0.3635,-0.3655,-0.3658,-0.3679,-0.3693,-0.3718,-0.3727,-0.3743,-0.374,-0.3745,-0.3747,-0.3748,-0.3749,-0.3714,-0.3746,-0.3746,-0.3746,-0.3746,-0.3746,0,-0.355,-0.3561,-0.3578,-0.3599,-0.3613,-0.3613,-0.3629,-0.3641,-0.366,-0.3674,-0.3689,-0.3711,-0.3729,-0.3741,-0.3759,-0.3769,-0.377,-0.3773,-0.3773,-0.3775,-0.3751,-0.3746,-0.3773,-0.3773,-0.3773,-0.3773,-0.3773,-0.3773,-0.3567,-0.359,-0.3596,-0.3626,-0.3636,-0.3657,-0.3666,-0.3678,-0.3689,-0.3714,-0.3729,-0.3737,-0.375,-0.3769,-0.3786,-0.3788,-0.3795,-0.3799,-0.3802,-0.3779,-0.3776,-0.3774,-0.3769,-0.38,-0.38,-0.3824,-0.3825,-0.3825]}]]